Aurora, CO

3:53 PM MST on January 19, 2017 (GMT -0700)
Buckley Air Force Base

Weather History for KBKF - May, 2013

Change the Weather History Date:

Monday, May 27, 2013

  Actual Average Record
Temperature  
Mean Temperature 68 °F -  
Max Temperature 82 °F 73 °F 89 °F (2006)
Min Temperature 55 °F 47 °F 39 °F (1997)
Cooling Degree Days 4    
Growing Degree Days 18 (Base 50)    
Moisture  
Dew Point 31 °F    
Average Humidity 30    
Maximum Humidity 67    
Minimum Humidity 8    
Precipitation  
Precipitation 0.00 in - - ()
Sea Level Pressure  
Sea Level Pressure 29.66 in    
Wind  
Wind Speed 8 mph (SSW)    
Max Wind Speed 28 mph    
Max Gust Speed 40 mph    
Visibility 10 miles    
Events Rain , Thunderstorm    
Averages and records for this station are not official NWS values.
T = Trace of Precipitation, MM = Missing Value Source: NWS Daily Summary

Daily Weather History Graph

Daily Weather History Graph

Search for Another Location

Airport or City:

Trip Planner

Search our weather history database for the weather conditions in past years. The results will help you decide how hot, cold, wet, or windy it might be!

Date:

Astronomy

May. 27, 2013 Rise Set
Actual Time 5:35 AM MDT 8:17 PM MDT
Civil Twilight 5:03 AM MDT 8:49 PM MDT
Nautical Twilight 4:24 AM MDT 9:28 PM MDT
Astronomical Twilight 3:39 AM MDT 10:13 PM MDT
Moon 10:58 PM MDT (5/27) 8:15 AM MDT (5/27)
Length of Visible Light 15h 45m
Length of Day
14h 41m
Waning Gibbous, 90% of the Moon is Illuminated
May 27
Waning Gibbous
May 31
Last Quarter
Jun 8
New
Jun 16
First Quarter
Jun 23
Full

Hourly Weather History & Observations

Time (MDT) Temp. Dew Point Humidity Pressure Visibility Wind Dir Wind Speed Gust Speed Precip Events Conditions
12:10 AM 68.0 °F 41.0 °F 37% 29.94 in 10.0 mi SSW 5.8 mph - N/A Rain , Thunderstorm Light Thunderstorms and Rain
12:50 AM 71.6 °F 28.4 °F 20% 29.90 in 10.0 mi SW 9.2 mph - N/A Thunderstorm Mostly Cloudy
12:55 AM 71.6 °F 28.4 °F 20% 29.64 in 10.0 mi SW 9.2 mph - N/A Thunderstorm Mostly Cloudy
1:55 AM 62.6 °F 41.0 °F 45% 29.66 in 25.0 mi WSW 5.8 mph - N/A   Mostly Cloudy
2:55 AM 57.2 °F 41.0 °F 55% 29.67 in 25.0 mi SSW 6.9 mph - N/A   Partly Cloudy
3:55 AM 57.2 °F 41.0 °F 55% 29.67 in 25.0 mi SSW 4.6 mph - N/A   Partly Cloudy
4:55 AM 55.4 °F 41.0 °F 58% 29.69 in 25.0 mi South 11.5 mph - N/A   Partly Cloudy
5:55 AM 55.4 °F 39.2 °F 54% 29.70 in 70.0 mi SSE 12.7 mph - N/A   Partly Cloudy
6:55 AM 59.0 °F 41.0 °F 51% 29.70 in 70.0 mi South 10.4 mph - N/A   Partly Cloudy
7:55 AM 66.2 °F 44.6 °F 46% 29.70 in 70.0 mi SSW 11.5 mph - N/A   Partly Cloudy
8:55 AM 69.8 °F 37.4 °F 31% 29.69 in 70.0 mi SW 12.7 mph - N/A   Scattered Clouds
9:55 AM 75.2 °F 21.2 °F 13% 29.66 in 70.0 mi SW 11.5 mph - N/A   Scattered Clouds
10:55 AM 77.0 °F 17.6 °F 11% 29.65 in 70.0 mi NNW 13.8 mph 18.4 mph N/A   Scattered Clouds
11:55 AM 78.8 °F 17.6 °F 10% 29.64 in 70.0 mi North 4.6 mph 20.7 mph N/A   Scattered Clouds
12:55 PM 80.6 °F 12.2 °F 8% 29.60 in 70.0 mi WNW 5.8 mph - N/A   Scattered Clouds
1:55 PM 80.6 °F 17.6 °F 10% 29.61 in 70.0 mi West 8.1 mph - N/A   Mostly Cloudy
2:55 PM 82.4 °F 21.2 °F 10% 29.59 in 70.0 mi South 6.9 mph - N/A   Mostly Cloudy
3:55 PM 80.6 °F 17.6 °F 10% 29.57 in 70.0 mi ESE 2.3 mph - N/A   Mostly Cloudy
4:55 PM 78.8 °F 19.4 °F 11% 29.57 in 70.0 mi ENE 8.1 mph - N/A   Mostly Cloudy
5:55 PM 75.2 °F 26.6 °F 17% 29.60 in 70.0 mi SSE 10.4 mph - N/A   Mostly Cloudy
6:55 PM 71.6 °F 26.6 °F 19% 29.60 in 25.0 mi West 27.6 mph 40.3 mph N/A   Mostly Cloudy
7:55 PM 69.8 °F 32.0 °F 25% 29.60 in 25.0 mi WNW 5.8 mph - N/A   Mostly Cloudy
8:55 PM 69.8 °F 24.8 °F 18% 29.59 in 25.0 mi SE 3.5 mph - N/A   Mostly Cloudy
9:55 PM 62.6 °F 32.0 °F 32% 29.62 in 25.0 mi East 4.6 mph - N/A   Mostly Cloudy
10:55 PM 59.0 °F 39.2 °F 48% 29.63 in 25.0 mi ESE 6.9 mph - N/A   Mostly Cloudy
11:55 PM 55.4 °F 44.6 °F 67% 29.62 in 25.0 mi South 10.4 mph - N/A   Partly Cloudy